星链-5597 (STARLINK-5597 )

导读 | 星芒AI

STARLINK-5597 是 SpaceX Starlink 卫星互联网项目中的一颗低轨卫星,属于“星链”计划的组成部分。该卫星由 SpaceX 研制并发射,旨在为全球用户提供高速互联网服务。它运行在约 550 公里的近地轨道上,采用先进的通信技术,支持宽带接入和低延迟数据传输。STARLINK-5597 与数千颗同类卫星共同构建星链星座,提升全球网络覆盖,尤其服务于偏远地区。该计划也引发对太空拥堵和光污染的担忧。

基本信息
目录编号:
55403
目录名称:
STARLINK-5597
国际标识:
2023-014N
轨道中心:
EARTH
卫星名称:
星链-5597
卫星全名:
星链-5597 (STARLINK-5597 )
卫星状态:
在轨 (已飞行1055 天)
发射日期:
2023-01-31 UTC
国别 :
美国 (US)
星等 :
--
轨道信息
数据来源 国际轨道数据 AOE轨道数据
星历时间 2025-12-21T11:59:14+0800
10小时前
查看轨道信息
2025-12-15T10:00:00+0800
6天前
查看轨道信息
半长轴 6950.279km 6950.182km
偏心率 0.0003059 0.0003616
轨道倾角 69.998° 70.000°
近地点辐角 272.005° 275.747°
升交点赤经 262.427° 277.760°
平近点角 88.076° 43.302°
近地点 570.015km 569.533km
远地点 574.269km 574.561km
周期 96.109分钟 96.107分钟
每日圈数 14.983024 14.983338
详细信息
固有亮度:
5
最大亮度:
2.5
卫星平台:
Starlink v1.5
覆盖范围:
全球
运营商:
太空探索技术公司
运营商所在国:
美国
制造商(研发单位):
太空探索技术公司
制造商所在国:
美国
使用方式:
暂无
卫星简介
星链(Starlink)计划是由太空探索技术公司(SpaceX)提出的一个巨型低轨卫星互联网星座项目,计划在2019年至2024年间在太空搭建由约1.2万颗卫星组成的“星链”网络,其中1584颗将部署在地球上空550千米处的近地轨道,并从2020年开始工作。该卫星仍在工作。
2D轨道图
3D轨道图
轨道高度分析图
轨道倾角分析图
轨道综合分析图
查看轨道综合分析图